Time,TemperatureF,DewpointF,PressureIn,WindDirection,WindDirectionDegrees,WindSpeedMPH,WindSpeedGustMPH,Humidity,HourlyPrecipIn,Conditions,Clouds,dailyrainin,SoftwareType,DateUTC
2013-11-09 00:04:00,46.5,38.3,29.80,West,266,4.0,8.0,73,0.00,,,0.00,Wunderground v.1.15,2013-11-09 06:04:00,
2013-11-09 00:10:00,46.5,38.3,29.80,WSW,239,5.0,10.0,73,0.00,,,0.00,Wunderground v.1.15,2013-11-09 06:10:00,
2013-11-09 00:16:00,46.3,38.1,29.80,WSW,238,4.0,8.0,73,0.00,,,0.00,Wunderground v.1.15,2013-11-09 06:16:00,
2013-11-09 00:22:00,46.2,38.0,29.80,WSW,245,3.0,8.0,73,0.00,,,0.00,Wunderground v.1.15,2013-11-09 06:22:00,
2013-11-09 00:27:00,46.2,38.4,29.81,SW,228,3.0,8.0,74,0.00,,,0.00,Wunderground v.1.15,2013-11-09 06:27:00,
2013-11-09 00:34:00,46.1,38.3,29.81,West,269,4.0,8.0,74,0.00,,,0.00,Wunderground v.1.15,2013-11-09 06:34:00,
2013-11-09 00:40:00,45.9,38.1,29.81,WSW,256,3.0,8.0,74,0.00,,,0.00,Wunderground v.1.15,2013-11-09 06:40:00,
2013-11-09 00:46:00,45.7,37.9,29.81,West,269,3.0,8.0,74,0.00,,,0.00,Wunderground v.1.15,2013-11-09 06:46:00,
2013-11-09 00:52:00,45.3,37.8,29.81,WSW,245,3.0,3.0,75,0.00,,,0.00,Wunderground v.1.15,2013-11-09 06:52:00,
2013-11-09 00:57:00,45.3,37.8,29.81,SW,226,3.0,8.0,75,0.00,,,0.00,Wunderground v.1.15,2013-11-09 06:57:00,
2013-11-09 01:04:00,45.6,38.1,29.81,WSW,239,3.0,8.0,75,0.00,,,0.00,Wunderground v.1.15,2013-11-09 07:04:00,
2013-11-09 01:09:00,46.5,38.7,29.81,West,278,4.0,8.0,74,0.00,,,0.00,Wunderground v.1.15,2013-11-09 07:09:00,
2013-11-09 01:16:00,47.3,38.7,29.81,West,260,5.0,8.0,72,0.00,,,0.00,Wunderground v.1.15,2013-11-09 07:16:00,
2013-11-09 01:22:00,47.2,38.6,29.81,NW,315,5.0,7.0,72,0.00,,,0.00,Wunderground v.1.15,2013-11-09 07:22:00,
2013-11-09 01:28:00,47.0,38.8,29.81,WNW,297,6.0,8.0,73,0.00,,,0.00,Wunderground v.1.15,2013-11-09 07:28:00,
2013-11-09 01:34:00,46.6,38.8,29.82,WSW,238,5.0,9.0,74,0.00,,,0.00,Wunderground v.1.15,2013-11-09 07:34:00,
2013-11-09 01:40:00,46.3,38.5,29.82,WNW,301,5.0,5.0,74,0.00,,,0.00,Wunderground v.1.15,2013-11-09 07:40:00,
2013-11-09 01:46:00,46.1,38.6,29.82,West,259,5.0,8.0,75,0.00,,,0.00,Wunderground v.1.15,2013-11-09 07:46:00,
2013-11-09 01:51:00,46.1,38.6,29.83,WNW,300,4.0,9.0,75,0.00,,,0.00,Wunderground v.1.15,2013-11-09 07:51:00,
2013-11-09 01:58:00,46.4,38.9,29.83,NW,311,5.0,9.0,75,0.00,,,0.00,Wunderground v.1.15,2013-11-09 07:58:00,
2013-11-09 02:04:00,46.4,38.9,29.83,SW,225,5.0,8.0,75,0.00,,,0.00,Wunderground v.1.15,2013-11-09 08:04:00,
2013-11-09 02:10:00,46.3,38.8,29.83,WSW,250,4.0,10.0,75,0.00,,,0.00,Wunderground v.1.15,2013-11-09 08:10:00,
2013-11-09 02:16:00,46.6,39.1,29.83,WNW,288,5.0,10.0,75,0.00,,,0.00,Wunderground v.1.15,2013-11-09 08:16:00,
2013-11-09 02:21:00,46.5,39.0,29.83,West,266,5.0,8.0,75,0.00,,,0.00,Wunderground v.1.15,2013-11-09 08:21:00,
2013-11-09 02:28:00,46.5,39.0,29.83,West,270,4.0,8.0,75,0.00,,,0.00,Wunderground v.1.15,2013-11-09 08:28:00,
2013-11-09 02:33:00,46.4,38.9,29.83,West,274,4.0,8.0,75,0.00,,,0.00,Wunderground v.1.15,2013-11-09 08:33:00,
2013-11-09 02:40:00,46.3,38.8,29.83,West,266,5.0,8.0,75,0.00,,,0.00,Wunderground v.1.15,2013-11-09 08:40:00,
2013-11-09 02:46:00,46.3,38.8,29.83,SW,232,5.0,8.0,75,0.00,,,0.00,Wunderground v.1.15,2013-11-09 08:46:00,
2013-11-09 02:52:00,46.3,38.8,29.84,WSW,242,5.0,7.0,75,0.00,,,0.00,Wunderground v.1.15,2013-11-09 08:52:00,
2013-11-09 02:58:00,46.1,39.0,29.84,WSW,245,6.0,8.0,76,0.00,,,0.00,Wunderground v.1.15,2013-11-09 08:58:00,
2013-11-09 03:04:00,46.1,39.0,29.84,WNW,284,5.0,8.0,76,0.00,,,0.00,Wunderground v.1.15,2013-11-09 09:04:00,
2013-11-09 03:10:00,46.3,39.1,29.85,WNW,294,5.0,8.0,76,0.00,,,0.00,Wunderground v.1.15,2013-11-09 09:10:00,
2013-11-09 03:16:00,46.7,39.2,29.84,West,280,5.0,8.0,75,0.00,,,0.00,Wunderground v.1.15,2013-11-09 09:16:00,
2013-11-09 03:22:00,46.9,39.4,29.85,NW,316,5.0,8.0,75,0.00,,,0.00,Wunderground v.1.15,2013-11-09 09:22:00,
2013-11-09 03:28:00,47.0,39.5,29.85,West,270,5.0,8.0,75,0.00,,,0.00,Wunderground v.1.15,2013-11-09 09:28:00,
2013-11-09 03:34:00,47.1,39.2,29.85,NW,322,5.0,8.0,74,0.00,,,0.00,Wunderground v.1.15,2013-11-09 09:34:00,
2013-11-09 03:40:00,47.2,39.3,29.86,West,266,6.0,8.0,74,0.00,,,0.00,Wunderground v.1.15,2013-11-09 09:40:00,
2013-11-09 03:45:00,47.2,39.3,29.86,SW,226,5.0,10.0,74,0.00,,,0.00,Wunderground v.1.15,2013-11-09 09:45:00,
2013-11-09 03:52:00,47.3,39.1,29.86,WSW,245,6.0,8.0,73,0.00,,,0.00,Wunderground v.1.15,2013-11-09 09:52:00,
2013-11-09 03:57:00,47.3,38.7,29.86,WNW,295,6.0,8.0,72,0.00,,,0.00,Wunderground v.1.15,2013-11-09 09:57:00,
2013-11-09 04:04:00,47.1,38.5,29.86,WNW,287,5.0,9.0,72,0.00,,,0.00,Wunderground v.1.15,2013-11-09 10:04:00,
2013-11-09 04:10:00,46.8,38.2,29.87,West,273,5.0,5.0,72,0.00,,,0.00,Wunderground v.1.15,2013-11-09 10:10:00,
2013-11-09 04:16:00,46.6,38.1,29.87,WNW,291,5.0,10.0,72,0.00,,,0.00,Wunderground v.1.15,2013-11-09 10:16:00,
2013-11-09 04:22:00,46.4,37.9,29.87,West,274,4.0,8.0,72,0.00,,,0.00,Wunderground v.1.15,2013-11-09 10:22:00,
2013-11-09 04:27:00,46.2,37.7,29.87,West,280,4.0,8.0,72,0.00,,,0.00,Wunderground v.1.15,2013-11-09 10:27:00,
2013-11-09 04:34:00,45.9,37.7,29.87,WNW,287,4.0,8.0,73,0.00,,,0.00,Wunderground v.1.15,2013-11-09 10:34:00,
2013-11-09 04:40:00,45.7,37.5,29.88,West,259,3.0,3.0,73,0.00,,,0.00,Wunderground v.1.15,2013-11-09 10:40:00,
2013-11-09 04:46:00,45.7,37.5,29.88,NW,307,3.0,8.0,73,0.00,,,0.00,Wunderground v.1.15,2013-11-09 10:46:00,
2013-11-09 04:52:00,45.6,37.4,29.88,NW,309,3.0,8.0,73,0.00,,,0.00,Wunderground v.1.15,2013-11-09 10:52:00,
2013-11-09 04:58:00,45.4,37.2,29.88,WNW,297,3.0,9.0,73,0.00,,,0.00,Wunderground v.1.15,2013-11-09 10:58:00,
2013-11-09 05:04:00,45.3,37.2,29.88,WSW,255,4.0,8.0,73,0.00,,,0.00,Wunderground v.1.15,2013-11-09 11:04:00,
2013-11-09 05:09:00,45.2,37.1,29.88,WNW,301,3.0,8.0,73,0.00,,,0.00,Wunderground v.1.15,2013-11-09 11:09:00,
2013-11-09 05:16:00,45.1,37.0,29.88,WNW,292,3.0,8.0,73,0.00,,,0.00,Wunderground v.1.15,2013-11-09 11:16:00,
2013-11-09 05:21:00,44.9,36.8,29.88,NW,308,3.0,8.0,73,0.00,,,0.00,Wunderground v.1.15,2013-11-09 11:21:00,
2013-11-09 05:28:00,44.7,36.9,29.89,WNW,293,3.0,8.0,74,0.00,,,0.00,Wunderground v.1.15,2013-11-09 11:28:00,
2013-11-09 05:34:00,44.5,36.7,29.89,West,281,3.0,8.0,74,0.00,,,0.00,Wunderground v.1.15,2013-11-09 11:34:00,
2013-11-09 05:40:00,44.4,37.0,29.89,West,270,3.0,3.0,75,0.00,,,0.00,Wunderground v.1.15,2013-11-09 11:40:00,
2013-11-09 05:46:00,44.2,36.8,29.89,West,274,3.0,8.0,75,0.00,,,0.00,Wunderground v.1.15,2013-11-09 11:46:00,
2013-11-09 05:51:00,44.0,36.6,29.89,West,262,3.0,8.0,75,0.00,,,0.00,Wunderground v.1.15,2013-11-09 11:51:00,
2013-11-09 05:58:00,43.9,36.5,29.90,West,262,4.0,8.0,75,0.00,,,0.00,Wunderground v.1.15,2013-11-09 11:58:00,
2013-11-09 06:04:00,43.5,36.4,29.90,WSW,255,3.0,8.0,76,0.00,,,0.00,Wunderground v.1.15,2013-11-09 12:04:00,
2013-11-09 06:10:00,43.1,36.4,29.90,West,264,2.0,8.0,77,0.00,,,0.00,Wunderground v.1.15,2013-11-09 12:10:00,
2013-11-09 06:16:00,42.8,36.1,29.90,NW,322,2.0,8.0,77,0.00,,,0.00,Wunderground v.1.15,2013-11-09 12:16:00,
2013-11-09 06:22:00,42.7,36.3,29.90,WSW,250,3.0,3.0,78,0.00,,,0.00,Wunderground v.1.15,2013-11-09 12:22:00,
2013-11-09 06:28:00,42.7,36.3,29.91,SW,232,3.0,8.0,78,0.00,,,0.00,Wunderground v.1.15,2013-11-09 12:28:00,
2013-11-09 06:34:00,42.3,35.9,29.91,WSW,240,3.0,8.0,78,0.00,,,0.00,Wunderground v.1.15,2013-11-09 12:34:00,
2013-11-09 06:40:00,41.9,35.9,29.92,West,266,3.0,3.0,79,0.00,,,0.00,Wunderground v.1.15,2013-11-09 12:40:00,
2013-11-09 06:46:00,41.5,35.5,29.92,WSW,250,3.0,8.0,79,0.00,,,0.00,Wunderground v.1.15,2013-11-09 12:46:00,
2013-11-09 06:52:00,41.3,35.6,29.92,West,276,2.0,8.0,80,0.00,,,0.00,Wunderground v.1.15,2013-11-09 12:52:00,
2013-11-09 06:58:00,41.2,35.5,29.92,WNW,297,2.0,8.0,80,0.00,,,0.00,Wunderground v.1.15,2013-11-09 12:58:00,
2013-11-09 07:04:00,41.2,35.5,29.92,WNW,290,3.0,8.0,80,0.00,,,0.00,Wunderground v.1.15,2013-11-09 13:04:00,
2013-11-09 07:10:00,41.1,35.4,29.92,West,267,3.0,3.0,80,0.00,,,0.00,Wunderground v.1.15,2013-11-09 13:10:00,
2013-11-09 07:15:00,41.1,35.4,29.92,West,276,3.0,8.0,80,0.00,,,0.00,Wunderground v.1.15,2013-11-09 13:15:00,
2013-11-09 07:22:00,41.2,35.5,29.93,West,259,3.0,8.0,80,0.00,,,0.00,Wunderground v.1.15,2013-11-09 13:22:00,
2013-11-09 07:28:00,41.3,35.6,29.93,SW,225,3.0,8.0,80,0.00,,,0.00,Wunderground v.1.15,2013-11-09 13:28:00,
2013-11-09 07:34:00,41.4,35.7,29.93,WNW,293,4.0,8.0,80,0.00,,,0.00,Wunderground v.1.15,2013-11-09 13:34:00,
2013-11-09 07:40:00,41.5,35.8,29.93,West,276,4.0,8.0,80,0.00,,,0.00,Wunderground v.1.15,2013-11-09 13:40:00,
2013-11-09 07:46:00,41.6,35.6,29.93,WSW,257,4.0,8.0,79,0.00,,,0.00,Wunderground v.1.15,2013-11-09 13:46:00,
2013-11-09 07:52:00,41.8,35.8,29.94,WSW,250,4.0,8.0,79,0.00,,,0.00,Wunderground v.1.15,2013-11-09 13:52:00,
2013-11-09 07:58:00,41.9,35.9,29.94,WNW,301,4.0,8.0,79,0.00,,,0.00,Wunderground v.1.15,2013-11-09 13:58:00,
2013-11-09 08:04:00,42.2,35.8,29.95,NW,311,4.0,8.0,78,0.00,,,0.00,Wunderground v.1.15,2013-11-09 14:04:00,
2013-11-09 08:10:00,42.5,36.1,29.95,NW,309,4.0,4.0,78,0.00,,,0.00,Wunderground v.1.15,2013-11-09 14:10:00,
2013-11-09 08:16:00,42.7,36.3,29.95,WSW,255,5.0,8.0,78,0.00,,,0.00,Wunderground v.1.15,2013-11-09 14:16:00,
2013-11-09 08:22:00,43.0,36.3,29.95,WSW,250,4.0,6.0,77,0.00,,,0.00,Wunderground v.1.15,2013-11-09 14:22:00,
2013-11-09 08:28:00,43.2,36.5,29.95,NW,323,4.0,8.0,77,0.00,,,0.00,Wunderground v.1.15,2013-11-09 14:28:00,
2013-11-09 08:34:00,43.5,36.4,29.96,WSW,248,5.0,8.0,76,0.00,,,0.00,Wunderground v.1.15,2013-11-09 14:34:00,
2013-11-09 08:39:00,44.1,37.0,29.96,West,260,5.0,8.0,76,0.00,,,0.00,Wunderground v.1.15,2013-11-09 14:39:00,
2013-11-09 08:46:00,44.5,37.1,29.96,West,263,5.0,9.0,75,0.00,,,0.00,Wunderground v.1.15,2013-11-09 14:46:00,
2013-11-09 08:52:00,44.8,37.0,29.96,WNW,297,6.0,8.0,74,0.00,,,0.00,Wunderground v.1.15,2013-11-09 14:52:00,
2013-11-09 08:58:00,45.1,37.0,29.96,West,280,5.0,8.0,73,0.00,,,0.00,Wunderground v.1.15,2013-11-09 14:58:00,
2013-11-09 09:04:00,45.5,37.3,29.96,West,281,5.0,8.0,73,0.00,,,0.00,Wunderground v.1.15,2013-11-09 15:04:00,
2013-11-09 09:10:00,46.0,37.5,29.96,WNW,302,5.0,8.0,72,0.00,,,0.00,Wunderground v.1.15,2013-11-09 15:10:00,
2013-11-09 09:16:00,46.6,38.1,29.96,West,271,6.0,8.0,72,0.00,,,0.00,Wunderground v.1.15,2013-11-09 15:16:00,
2013-11-09 09:22:00,47.1,38.2,29.97,NNW,329,5.0,8.0,71,0.00,,,0.00,Wunderground v.1.15,2013-11-09 15:22:00,
2013-11-09 09:28:00,47.5,38.2,29.97,WNW,301,5.0,8.0,70,0.00,,,0.00,Wunderground v.1.15,2013-11-09 15:28:00,
2013-11-09 09:34:00,47.7,38.4,29.97,NW,316,5.0,8.0,70,0.00,,,0.00,Wunderground v.1.15,2013-11-09 15:34:00,
2013-11-09 09:40:00,47.7,38.4,29.97,WSW,242,6.0,6.0,70,0.00,,,0.00,Wunderground v.1.15,2013-11-09 15:40:00,
2013-11-09 09:46:00,48.0,38.7,29.98,SW,232,6.0,8.0,70,0.00,,,0.00,Wunderground v.1.15,2013-11-09 15:46:00,
2013-11-09 09:52:00,47.9,38.6,29.98,WNW,295,6.0,8.0,70,0.00,,,0.00,Wunderground v.1.15,2013-11-09 15:52:00,
2013-11-09 09:58:00,47.7,38.8,29.98,North,352,6.0,8.0,71,0.00,,,0.00,Wunderground v.1.15,2013-11-09 15:58:00,
2013-11-09 10:04:00,48.1,39.1,29.99,West,264,5.0,8.0,71,0.00,,,0.00,Wunderground v.1.15,2013-11-09 16:04:00,
2013-11-09 10:10:00,48.2,38.9,29.99,West,259,5.0,8.0,70,0.00,,,0.00,Wunderground v.1.15,2013-11-09 16:10:00,
2013-11-09 10:16:00,48.4,39.1,29.99,West,273,6.0,11.0,70,0.00,,,0.00,Wunderground v.1.15,2013-11-09 16:16:00,
2013-11-09 10:22:00,48.8,39.1,29.99,WSW,242,6.0,11.0,69,0.00,,,0.00,Wunderground v.1.15,2013-11-09 16:22:00,
2013-11-09 10:28:00,49.1,39.4,29.99,WNW,287,5.0,11.0,69,0.00,,,0.00,Wunderground v.1.15,2013-11-09 16:28:00,
2013-11-09 10:33:00,49.4,39.3,29.99,NW,308,5.0,8.0,68,0.00,,,0.00,Wunderground v.1.15,2013-11-09 16:33:00,
2013-11-09 10:40:00,49.7,39.6,29.99,West,271,6.0,6.0,68,0.00,,,0.00,Wunderground v.1.15,2013-11-09 16:40:00,
2013-11-09 10:45:00,49.8,39.3,30.00,WSW,245,6.0,8.0,67,0.00,,,0.00,Wunderground v.1.15,2013-11-09 16:45:00,
2013-11-09 10:52:00,50.1,39.6,30.00,NW,311,5.0,10.0,67,0.00,,,0.00,Wunderground v.1.15,2013-11-09 16:52:00,
2013-11-09 10:58:00,49.8,39.3,30.00,NW,309,6.0,10.0,67,0.00,,,0.00,Wunderground v.1.15,2013-11-09 16:58:00,
2013-11-09 11:04:00,49.9,39.8,30.00,West,276,5.0,13.0,68,0.00,,,0.00,Wunderground v.1.15,2013-11-09 17:04:00,
2013-11-09 11:10:00,49.7,39.6,30.01,NW,316,5.0,8.0,68,0.00,,,0.00,Wunderground v.1.15,2013-11-09 17:10:00,
2013-11-09 11:16:00,49.7,39.6,30.01,NW,318,6.0,8.0,68,0.00,,,0.00,Wunderground v.1.15,2013-11-09 17:16:00,
2013-11-09 11:22:00,50.3,39.8,30.01,WNW,293,6.0,7.0,67,0.00,,,0.00,Wunderground v.1.15,2013-11-09 17:22:00,
2013-11-09 11:28:00,50.6,39.7,30.01,WSW,255,5.0,8.0,66,0.00,,,0.00,Wunderground v.1.15,2013-11-09 17:28:00,
2013-11-09 11:34:00,51.0,39.2,30.01,NNW,337,4.0,8.0,64,0.00,,,0.00,Wunderground v.1.15,2013-11-09 17:34:00,
2013-11-09 11:40:00,50.9,38.7,30.01,WNW,297,5.0,5.0,63,0.00,,,0.00,Wunderground v.1.15,2013-11-09 17:40:00,
2013-11-09 11:46:00,50.7,39.0,30.02,WNW,297,5.0,8.0,64,0.00,,,0.00,Wunderground v.1.15,2013-11-09 17:46:00,
2013-11-09 11:52:00,51.0,38.8,30.01,NW,314,6.0,9.0,63,0.00,,,0.00,Wunderground v.1.15,2013-11-09 17:52:00,
2013-11-09 11:58:00,51.0,39.2,30.02,NNW,344,6.0,9.0,64,0.00,,,0.00,Wunderground v.1.15,2013-11-09 17:58:00,
2013-11-09 12:04:00,51.3,39.1,30.02,NW,326,5.0,8.0,63,0.00,,,0.00,Wunderground v.1.15,2013-11-09 18:04:00,
2013-11-09 12:10:00,51.2,39.4,30.02,North,360,6.0,8.0,64,0.00,,,0.00,Wunderground v.1.15,2013-11-09 18:10:00,
2013-11-09 12:15:00,51.3,39.1,30.01,WNW,287,6.0,9.0,63,0.00,,,0.00,Wunderground v.1.15,2013-11-09 18:15:00,
2013-11-09 12:22:00,51.2,39.0,30.02,WNW,302,7.0,10.0,63,0.00,,,0.00,Wunderground v.1.15,2013-11-09 18:22:00,
2013-11-09 12:28:00,51.2,39.0,30.02,NW,323,7.0,10.0,63,0.00,,,0.00,Wunderground v.1.15,2013-11-09 18:28:00,
2013-11-09 12:34:00,51.0,39.2,30.02,West,264,7.0,9.0,64,0.00,,,0.00,Wunderground v.1.15,2013-11-09 18:34:00,
2013-11-09 12:40:00,51.3,39.1,30.02,NW,313,6.0,6.0,63,0.00,,,0.00,Wunderground v.1.15,2013-11-09 18:40:00,
2013-11-09 12:46:00,51.4,38.8,30.03,WNW,298,6.0,8.0,62,0.00,,,0.00,Wunderground v.1.15,2013-11-09 18:46:00,
2013-11-09 12:52:00,51.2,39.0,30.02,West,260,5.0,13.0,63,0.00,,,0.00,Wunderground v.1.15,2013-11-09 18:52:00,
2013-11-09 12:57:00,51.5,38.9,30.03,WNW,302,7.0,13.0,62,0.00,,,0.00,Wunderground v.1.15,2013-11-09 18:57:00,
2013-11-09 13:04:00,51.0,38.8,30.03,WNW,285,7.0,8.0,63,0.00,,,0.00,Wunderground v.1.15,2013-11-09 19:04:00,
2013-11-09 13:10:00,50.9,38.7,30.03,West,266,6.0,6.0,63,0.00,,,0.00,Wunderground v.1.15,2013-11-09 19:10:00,
2013-11-09 13:16:00,51.0,38.4,30.04,NW,305,7.0,11.0,62,0.00,,,0.00,Wunderground v.1.15,2013-11-09 19:16:00,
2013-11-09 13:22:00,50.8,38.7,30.04,SW,215,6.0,14.0,63,0.00,,,0.00,Wunderground v.1.15,2013-11-09 19:22:00,
2013-11-09 13:28:00,50.9,38.7,30.04,NW,320,6.0,14.0,63,0.00,,,0.00,Wunderground v.1.15,2013-11-09 19:28:00,
2013-11-09 13:34:00,51.6,39.0,30.04,WNW,302,5.0,8.0,62,0.00,,,0.00,Wunderground v.1.15,2013-11-09 19:34:00,
2013-11-09 13:40:00,51.5,38.9,30.03,NNW,337,7.0,7.0,62,0.00,,,0.00,Wunderground v.1.15,2013-11-09 19:40:00,
2013-11-09 13:46:00,51.4,38.8,30.04,NW,311,6.0,8.0,62,0.00,,,0.00,Wunderground v.1.15,2013-11-09 19:46:00,
2013-11-09 13:52:00,51.5,38.9,30.04,NW,322,7.0,7.0,62,0.00,,,0.00,Wunderground v.1.15,2013-11-09 19:52:00,
2013-11-09 13:58:00,51.7,38.7,30.04,NW,309,6.0,10.0,61,0.00,,,0.00,Wunderground v.1.15,2013-11-09 19:58:00,
2013-11-09 14:04:00,51.6,38.6,30.04,WNW,302,7.0,8.0,61,0.00,,,0.00,Wunderground v.1.15,2013-11-09 20:04:00,
2013-11-09 14:10:00,51.6,38.2,30.05,NW,319,7.0,7.0,60,0.00,,,0.00,Wunderground v.1.15,2013-11-09 20:10:00,
2013-11-09 14:16:00,51.4,38.4,30.05,WNW,282,6.0,8.0,61,0.00,,,0.00,Wunderground v.1.15,2013-11-09 20:16:00,
2013-11-09 14:21:00,52.0,38.5,30.05,NW,326,6.0,8.0,60,0.00,,,0.00,Wunderground v.1.15,2013-11-09 20:21:00,
2013-11-09 14:28:00,52.3,38.8,30.05,West,259,5.0,9.0,60,0.00,,,0.00,Wunderground v.1.15,2013-11-09 20:28:00,
2013-11-09 14:34:00,52.3,38.8,30.05,West,278,6.0,11.0,60,0.00,,,0.00,Wunderground v.1.15,2013-11-09 20:34:00,
2013-11-09 14:40:00,52.5,38.6,30.05,WSW,252,6.0,8.0,59,0.00,,,0.00,Wunderground v.1.15,2013-11-09 20:40:00,
2013-11-09 14:46:00,52.4,38.9,30.05,WNW,287,6.0,10.0,60,0.00,,,0.00,Wunderground v.1.15,2013-11-09 20:46:00,
2013-11-09 14:52:00,52.4,38.0,30.05,NNW,340,6.0,8.0,58,0.00,,,0.00,Wunderground v.1.15,2013-11-09 20:52:00,
2013-11-09 14:58:00,52.4,38.0,30.05,WNW,290,5.0,8.0,58,0.00,,,0.00,Wunderground v.1.15,2013-11-09 20:58:00,
2013-11-09 15:04:00,52.5,38.1,30.06,West,271,6.0,8.0,58,0.00,,,0.00,Wunderground v.1.15,2013-11-09 21:04:00,
2013-11-09 15:10:00,52.6,38.2,30.06,West,278,6.0,8.0,58,0.00,,,0.00,Wunderground v.1.15,2013-11-09 21:10:00,
2013-11-09 15:16:00,52.3,37.5,30.07,WNW,303,7.0,8.0,57,0.00,,,0.00,Wunderground v.1.15,2013-11-09 21:16:00,
2013-11-09 15:22:00,52.4,38.0,30.06,NNW,331,7.0,8.0,58,0.00,,,0.00,Wunderground v.1.15,2013-11-09 21:22:00,
2013-11-09 15:28:00,52.1,37.8,30.07,WNW,284,6.0,8.0,58,0.00,,,0.00,Wunderground v.1.15,2013-11-09 21:28:00,
2013-11-09 15:34:00,52.1,38.2,30.07,SW,223,6.0,8.0,59,0.00,,,0.00,Wunderground v.1.15,2013-11-09 21:34:00,
2013-11-09 15:40:00,52.2,37.9,30.06,WNW,300,5.0,8.0,58,0.00,,,0.00,Wunderground v.1.15,2013-11-09 21:40:00,
2013-11-09 15:45:00,52.3,38.0,30.06,NW,312,6.0,10.0,58,0.00,,,0.00,Wunderground v.1.15,2013-11-09 21:45:00,
2013-11-09 15:52:00,51.9,38.0,30.07,West,269,6.0,8.0,59,0.00,,,0.00,Wunderground v.1.15,2013-11-09 21:52:00,
2013-11-09 15:57:00,51.9,38.0,30.07,SSW,208,5.0,8.0,59,0.00,,,0.00,Wunderground v.1.15,2013-11-09 21:57:00,
2013-11-09 16:04:00,51.8,37.9,30.07,NW,313,5.0,8.0,59,0.00,,,0.00,Wunderground v.1.15,2013-11-09 22:04:00,
2013-11-09 16:10:00,51.5,37.6,30.08,WNW,299,5.0,5.0,59,0.00,,,0.00,Wunderground v.1.15,2013-11-09 22:10:00,
2013-11-09 16:16:00,51.1,37.3,30.08,NW,309,6.0,8.0,59,0.00,,,0.00,Wunderground v.1.15,2013-11-09 22:16:00,
2013-11-09 16:22:00,51.0,37.2,30.08,NNW,345,5.0,8.0,59,0.00,,,0.00,Wunderground v.1.15,2013-11-09 22:22:00,
2013-11-09 16:27:00,50.6,37.2,30.08,West,266,5.0,8.0,60,0.00,,,0.00,Wunderground v.1.15,2013-11-09 22:27:00,
2013-11-09 16:34:00,50.3,37.4,30.08,NW,316,5.0,8.0,61,0.00,,,0.00,Wunderground v.1.15,2013-11-09 22:34:00,
2013-11-09 16:39:00,49.9,37.0,30.09,NW,305,5.0,5.0,61,0.00,,,0.00,Wunderground v.1.15,2013-11-09 22:39:00,
2013-11-09 16:46:00,49.5,37.0,30.09,NNW,342,5.0,8.0,62,0.00,,,0.00,Wunderground v.1.15,2013-11-09 22:46:00,
2013-11-09 16:51:00,49.1,37.0,30.09,West,262,4.0,8.0,63,0.00,,,0.00,Wunderground v.1.15,2013-11-09 22:51:00,
2013-11-09 16:58:00,48.9,37.3,30.10,West,259,5.0,9.0,64,0.00,,,0.00,Wunderground v.1.15,2013-11-09 22:58:00,
2013-11-09 17:03:00,48.5,37.3,30.10,SW,236,5.0,8.0,65,0.00,,,0.00,Wunderground v.1.15,2013-11-09 23:03:00,
2013-11-09 17:10:00,48.1,37.3,30.11,NW,317,4.0,4.0,66,0.00,,,0.00,Wunderground v.1.15,2013-11-09 23:10:00,
2013-11-09 17:16:00,47.8,37.4,30.11,NW,305,3.0,8.0,67,0.00,,,0.00,Wunderground v.1.15,2013-11-09 23:16:00,
2013-11-09 17:22:00,47.6,37.2,30.11,North,355,4.0,8.0,67,0.00,,,0.00,Wunderground v.1.15,2013-11-09 23:22:00,
2013-11-09 17:28:00,47.3,37.3,30.11,West,270,4.0,8.0,68,0.00,,,0.00,Wunderground v.1.15,2013-11-09 23:28:00,
2013-11-09 17:34:00,47.1,37.1,30.12,NW,326,3.0,8.0,68,0.00,,,0.00,Wunderground v.1.15,2013-11-09 23:34:00,
2013-11-09 17:40:00,46.9,36.9,30.13,NW,307,3.0,3.0,68,0.00,,,0.00,Wunderground v.1.15,2013-11-09 23:40:00,
2013-11-09 17:45:00,46.6,37.0,30.13,NNW,327,3.0,8.0,69,0.00,,,0.00,Wunderground v.1.15,2013-11-09 23:45:00,
2013-11-09 17:52:00,46.2,37.0,30.13,WNW,285,2.0,8.0,70,0.00,,,0.00,Wunderground v.1.15,2013-11-09 23:52:00,
2013-11-09 17:57:00,45.9,36.7,30.13,North,5,2.0,8.0,70,0.00,,,0.00,Wunderground v.1.15,2013-11-09 23:57:00,
2013-11-09 18:04:00,45.7,36.8,30.14,NW,315,2.0,8.0,71,0.00,,,0.00,Wunderground v.1.15,2013-11-10 00:04:00,
2013-11-09 18:10:00,45.7,36.8,30.14,West,277,2.0,8.0,71,0.00,,,0.00,Wunderground v.1.15,2013-11-10 00:10:00,
2013-11-09 18:16:00,45.4,36.5,30.14,WNW,294,3.0,8.0,71,0.00,,,0.00,Wunderground v.1.15,2013-11-10 00:16:00,
2013-11-09 18:22:00,45.3,36.4,30.15,West,262,3.0,8.0,71,0.00,,,0.00,Wunderground v.1.15,2013-11-10 00:22:00,
2013-11-09 18:28:00,45.1,36.3,30.15,WNW,283,3.0,8.0,71,0.00,,,0.00,Wunderground v.1.15,2013-11-10 00:28:00,
2013-11-09 18:34:00,44.9,36.1,30.15,NW,319,4.0,8.0,71,0.00,,,0.00,Wunderground v.1.15,2013-11-10 00:34:00,
2013-11-09 18:40:00,44.7,36.2,30.15,WNW,297,3.0,3.0,72,0.00,,,0.00,Wunderground v.1.15,2013-11-10 00:40:00,
2013-11-09 18:46:00,44.4,35.9,30.16,WSW,257,3.0,8.0,72,0.00,,,0.00,Wunderground v.1.15,2013-11-10 00:46:00,
2013-11-09 18:52:00,44.1,35.6,30.16,WSW,250,3.0,6.0,72,0.00,,,0.00,Wunderground v.1.15,2013-11-10 00:52:00,
2013-11-09 18:58:00,43.9,35.8,30.16,WNW,287,3.0,8.0,73,0.00,,,0.00,Wunderground v.1.15,2013-11-10 00:58:00,
2013-11-09 19:04:00,43.7,35.6,30.16,NW,319,3.0,8.0,73,0.00,,,0.00,Wunderground v.1.15,2013-11-10 01:04:00,
2013-11-09 19:10:00,43.4,35.7,30.16,WNW,301,3.0,3.0,74,0.00,,,0.00,Wunderground v.1.15,2013-11-10 01:10:00,
2013-11-09 19:15:00,43.3,35.6,30.16,NNW,340,3.0,8.0,74,0.00,,,0.00,Wunderground v.1.15,2013-11-10 01:15:00,
2013-11-09 19:22:00,43.1,35.4,30.17,West,280,3.0,8.0,74,0.00,,,0.00,Wunderground v.1.15,2013-11-10 01:22:00,
2013-11-09 19:28:00,43.1,35.0,30.17,SW,226,3.0,8.0,73,0.00,,,0.00,Wunderground v.1.15,2013-11-10 01:28:00,
2013-11-09 19:34:00,43.1,35.0,30.17,North,350,3.0,8.0,73,0.00,,,0.00,Wunderground v.1.15,2013-11-10 01:34:00,
2013-11-09 19:40:00,43.1,35.0,30.17,NNW,331,3.0,3.0,73,0.00,,,0.00,Wunderground v.1.15,2013-11-10 01:40:00,
2013-11-09 19:46:00,42.9,35.2,30.18,West,266,2.0,8.0,74,0.00,,,0.00,Wunderground v.1.15,2013-11-10 01:46:00,
2013-11-09 19:52:00,42.6,34.9,30.18,NNW,334,2.0,8.0,74,0.00,,,0.00,Wunderground v.1.15,2013-11-10 01:52:00,
2013-11-09 19:58:00,42.5,35.1,30.19,NW,309,2.0,8.0,75,0.00,,,0.00,Wunderground v.1.15,2013-11-10 01:58:00,
2013-11-09 20:04:00,42.4,35.0,30.19,NNW,329,2.0,8.0,75,0.00,,,0.00,Wunderground v.1.15,2013-11-10 02:04:00,
2013-11-09 20:10:00,42.3,34.6,30.19,NW,315,2.0,8.0,74,0.00,,,0.00,Wunderground v.1.15,2013-11-10 02:10:00,
2013-11-09 20:16:00,42.4,33.7,30.19,NW,314,3.0,8.0,71,0.00,,,0.00,Wunderground v.1.15,2013-11-10 02:16:00,
2013-11-09 20:22:00,42.3,33.6,30.20,NW,313,3.0,8.0,71,0.00,,,0.00,Wunderground v.1.15,2013-11-10 02:22:00,
2013-11-09 20:28:00,42.2,33.1,30.20,NW,326,3.0,8.0,70,0.00,,,0.00,Wunderground v.1.15,2013-11-10 02:28:00,
2013-11-09 20:33:00,41.9,33.2,30.20,West,281,3.0,8.0,71,0.00,,,0.00,Wunderground v.1.15,2013-11-10 02:33:00,
2013-11-09 20:40:00,41.6,32.9,30.20,WNW,298,2.0,8.0,71,0.00,,,0.00,Wunderground v.1.15,2013-11-10 02:40:00,
2013-11-09 20:46:00,41.4,33.0,30.20,NW,305,2.0,8.0,72,0.00,,,0.00,Wunderground v.1.15,2013-11-10 02:46:00,
2013-11-09 20:52:00,41.3,33.0,30.20,NW,313,3.0,4.0,72,0.00,,,0.00,Wunderground v.1.15,2013-11-10 02:52:00,
2013-11-09 20:58:00,41.1,32.8,30.21,WNW,297,3.0,8.0,72,0.00,,,0.00,Wunderground v.1.15,2013-11-10 02:58:00,
2013-11-09 21:04:00,41.0,32.3,30.21,NW,323,3.0,8.0,71,0.00,,,0.00,Wunderground v.1.15,2013-11-10 03:04:00,
2013-11-09 21:09:00,40.9,32.2,30.21,NW,316,4.0,8.0,71,0.00,,,0.00,Wunderground v.1.15,2013-11-10 03:09:00,
2013-11-09 21:16:00,40.8,31.8,30.22,WNW,297,3.0,8.0,70,0.00,,,0.00,Wunderground v.1.15,2013-11-10 03:16:00,
2013-11-09 21:21:00,40.6,31.9,30.22,WNW,290,2.0,8.0,71,0.00,,,0.00,Wunderground v.1.15,2013-11-10 03:21:00,
2013-11-09 21:28:00,40.5,32.2,30.22,West,274,3.0,8.0,72,0.00,,,0.00,Wunderground v.1.15,2013-11-10 03:28:00,
2013-11-09 21:34:00,40.3,32.0,30.22,WNW,297,4.0,8.0,72,0.00,,,0.00,Wunderground v.1.15,2013-11-10 03:34:00,
2013-11-09 21:40:00,40.1,31.8,30.22,NNW,337,4.0,4.0,72,0.00,,,0.00,Wunderground v.1.15,2013-11-10 03:40:00,
2013-11-09 21:46:00,39.9,31.6,30.23,SW,221,3.0,8.0,72,0.00,,,0.00,Wunderground v.1.15,2013-11-10 03:46:00,
2013-11-09 21:52:00,39.9,31.3,30.23,WNW,298,3.0,8.0,71,0.00,,,0.00,Wunderground v.1.15,2013-11-10 03:52:00,
2013-11-09 21:58:00,39.8,31.2,30.23,WNW,290,3.0,8.0,71,0.00,,,0.00,Wunderground v.1.15,2013-11-10 03:58:00,
2013-11-09 22:04:00,39.6,31.0,30.23,WNW,300,3.0,8.0,71,0.00,,,0.00,Wunderground v.1.15,2013-11-10 04:04:00,
2013-11-09 22:10:00,39.4,30.8,30.24,WNW,298,3.0,8.0,71,0.00,,,0.00,Wunderground v.1.15,2013-11-10 04:10:00,
2013-11-09 22:16:00,39.3,30.3,30.24,WSW,255,3.0,8.0,70,0.00,,,0.00,Wunderground v.1.15,2013-11-10 04:16:00,
2013-11-09 22:22:00,39.2,30.2,30.24,WNW,287,3.0,8.0,70,0.00,,,0.00,Wunderground v.1.15,2013-11-10 04:22:00,
2013-11-09 22:27:00,39.1,30.1,30.24,WNW,292,4.0,8.0,70,0.00,,,0.00,Wunderground v.1.15,2013-11-10 04:27:00,
2013-11-09 22:34:00,38.9,29.9,30.25,West,260,3.0,8.0,70,0.00,,,0.00,Wunderground v.1.15,2013-11-10 04:34:00,
2013-11-09 22:40:00,38.8,29.8,30.25,NW,315,3.0,8.0,70,0.00,,,0.00,Wunderground v.1.15,2013-11-10 04:40:00,
2013-11-09 22:46:00,38.6,30.0,30.25,WSW,255,3.0,8.0,71,0.00,,,0.00,Wunderground v.1.15,2013-11-10 04:46:00,
2013-11-09 22:52:00,38.5,29.9,30.25,WNW,295,3.0,8.0,71,0.00,,,0.00,Wunderground v.1.15,2013-11-10 04:52:00,
2013-11-09 22:58:00,38.3,30.1,30.25,NW,314,3.0,8.0,72,0.00,,,0.00,Wunderground v.1.15,2013-11-10 04:58:00,
2013-11-09 23:02:00,38.1,29.9,30.25,WNW,290,3.0,10.0,72,0.00,,,0.00,Wunderground v.1.15,2013-11-10 05:02:00,
2013-11-09 23:04:00,38.1,29.9,30.25,NW,309,4.0,10.0,72,0.00,,,0.00,Wunderground v.1.15,2013-11-10 05:04:00,
2013-11-09 23:06:00,38.1,29.9,30.25,West,266,4.0,10.0,72,0.00,,,0.00,Wunderground v.1.15,2013-11-10 05:06:00,
2013-11-09 23:07:00,38.0,29.8,30.26,WNW,290,3.0,10.0,72,0.00,,,0.00,Wunderground v.1.15,2013-11-10 05:07:00,
2013-11-09 23:09:00,37.9,29.7,30.25,WNW,298,3.0,8.0,72,0.00,,,0.00,Wunderground v.1.15,2013-11-10 05:09:00,
2013-11-09 23:16:00,37.8,29.9,30.26,WNW,302,3.0,8.0,73,0.00,,,0.00,Wunderground v.1.15,2013-11-10 05:16:00,
2013-11-09 23:21:00,37.6,29.7,30.26,NW,315,3.0,8.0,73,0.00,,,0.00,Wunderground v.1.15,2013-11-10 05:21:00,
2013-11-09 23:28:00,37.4,29.9,30.26,WNW,301,4.0,8.0,74,0.00,,,0.00,Wunderground v.1.15,2013-11-10 05:28:00,
2013-11-09 23:33:00,37.2,29.7,30.26,WNW,302,3.0,8.0,74,0.00,,,0.00,Wunderground v.1.15,2013-11-10 05:33:00,
2013-11-09 23:40:00,36.9,29.7,30.27,WNW,287,3.0,3.0,75,0.00,,,0.00,Wunderground v.1.15,2013-11-10 05:40:00,
2013-11-09 23:46:00,36.7,29.5,30.27,NW,320,4.0,8.0,75,0.00,,,0.00,Wunderground v.1.15,2013-11-10 05:46:00,
2013-11-09 23:52:00,36.5,29.3,30.27,WNW,301,3.0,8.0,75,0.00,,,0.00,Wunderground v.1.15,2013-11-10 05:52:00,
2013-11-09 23:58:00,36.3,29.1,30.27,NNW,340,3.0,8.0,75,0.00,,,0.00,Wunderground v.1.15,2013-11-10 05:58:00,